Windsor, Ontario

4:49 AM EDT on July 25, 2017 (GMT -0400)
Windsor

Weather History for CYQG - October, 2012

Change the Weather History Date:

Sunday, October 28, 2012

  Actual Average Record
Temperature  
Mean Temperature 43 °F -  
Max Temperature 46 °F 48 °F 73 °F (1999)
Min Temperature 40 °F 34 °F 28 °F (1997)
Degree Days  
Heating Degree Days 22    
Moisture  
Dew Point 33 °F    
Average Humidity 64    
Maximum Humidity 76    
Minimum Humidity 46    
Precipitation  
Precipitation 0.04 in 0.10 in - ()
Sea Level Pressure  
Sea Level Pressure 30.15 in    
Wind  
Wind Speed 13 mph ()    
Max Wind Speed 26 mph    
Max Gust Speed 37 mph    
Visibility 14.9 miles    
Events Rain    
Averages and records for this station are not official NWS values.
T = Trace of Precipitation, MM = Missing Value Source: Averaged Metar Reports

Daily Weather History Graph

Daily Weather History Graph

Search for Another Location

Airport or City:

Trip Planner

Search our weather history database for the weather conditions in past years. The results will help you decide how hot, cold, wet, or windy it might be!

Date:

Astronomy

Oct. 28, 2012 Rise Set
Actual Time 8:00 AM EDT 6:29 PM EDT
Civil Twilight 7:31 AM EDT 6:58 PM EDT
Nautical Twilight 6:58 AM EDT 7:31 PM EDT
Astronomical Twilight 6:26 AM EDT 8:04 PM EDT
Moon 5:47 PM EDT (10/28) 6:52 AM EDT (10/28)
Length of Visible Light 11h 27m
Length of Day
10h 29m
Waxing Gibbous, 99% of the Moon is Illuminated
Oct 28
Waxing Gibbous
Oct 29
Full
Nov 6
Last Quarter
Nov 13
New
Nov 20
First Quarter

Hourly Weather History & Observations

Time (EDT) Temp. Windchill Dew Point Humidity Pressure Visibility Wind Dir Wind Speed Gust Speed Precip Events Conditions
12:00 AM 44.6 °F 39.7 °F 33.8 °F 66% 30.19 in 15.0 mi North 9.2 mph - N/A   Mostly Cloudy
1:00 AM 44.6 °F 38.1 °F 33.8 °F 66% 30.19 in 15.0 mi North 13.8 mph - N/A   Mostly Cloudy
2:00 AM 44 °F - 32 °F 50% 30.19 in 15 mi North 12.7 mph - -   Mostly Cloudy
2:00 AM 42.8 °F 36.2 °F 32.0 °F 66% 30.19 in 15.0 mi North 12.7 mph 18.4 mph N/A   Mostly Cloudy
3:00 AM 42.8 °F 36.2 °F 32.0 °F 66% 30.18 in 15.0 mi North 12.7 mph 19.6 mph N/A   Mostly Cloudy
4:00 AM 42.8 °F 37.0 °F 32.0 °F 66% 30.19 in 15.0 mi NNE 10.4 mph - N/A   Overcast
5:00 AM 42.8 °F 35.8 °F 32.0 °F 66% 30.18 in 15.0 mi North 13.8 mph - N/A   Mostly Cloudy
6:00 AM 41.0 °F 34.3 °F 32.0 °F 70% 30.17 in 15.0 mi North 11.5 mph 19.6 mph N/A   Mostly Cloudy
7:00 AM 41.0 °F 33.5 °F 33.8 °F 76% 30.15 in 15.0 mi North 13.8 mph 19.6 mph N/A   Scattered Clouds
8:00 AM 41 °F - 34 °F 68% 30.17 in 15 mi North 10.4 mph - -   Mostly Cloudy
8:00 AM 41.0 °F 34.3 °F 33.8 °F 76% 30.17 in 15.0 mi North 11.5 mph - N/A   Mostly Cloudy
9:00 AM 42.8 °F 37.5 °F 35.6 °F 76% 30.19 in 15.0 mi North 9.2 mph - N/A   Mostly Cloudy
10:00 AM 42.8 °F 37.0 °F 35.6 °F 76% 30.19 in 15.0 mi North 10.4 mph - N/A   Mostly Cloudy
11:00 AM 44.6 °F 37.8 °F 37.4 °F 76% 30.16 in 15.0 mi North 15.0 mph - N/A   Mostly Cloudy
12:00 PM 46.4 °F 37.7 °F 33.8 °F 62% 30.16 in 15.0 mi NNE 26.5 mph 33.4 mph N/A   Mostly Cloudy
1:00 PM 46.4 °F 37.9 °F 33.8 °F 62% 30.13 in 15.0 mi NNE 25.3 mph 36.8 mph N/A   Mostly Cloudy
2:00 PM 46 °F - 33 °F 49% 30.12 in 15 mi NNE 20.7 mph - -   Partly Cloudy
2:00 PM 46.4 °F 38.5 °F 33.8 °F 62% 30.12 in 15.0 mi NNE 21.9 mph 29.9 mph N/A   Mostly Cloudy
3:00 PM 46.4 °F 38.5 °F 32.0 °F 57% 30.12 in 15.0 mi NNE 21.9 mph 32.2 mph N/A   Mostly Cloudy
4:00 PM 46.4 °F 39.2 °F 32.0 °F 57% 30.11 in 15.0 mi North 18.4 mph 28.8 mph N/A   Overcast
5:00 PM 44.6 °F 36.1 °F 30.2 °F 57% 30.11 in 15.0 mi North 21.9 mph 27.6 mph N/A   Mostly Cloudy
6:00 PM 44.6 °F 37.8 °F 30.2 °F 57% 30.12 in 15.0 mi North 15.0 mph 24.2 mph N/A   Mostly Cloudy
7:00 PM 44.6 °F 37.4 °F 30.2 °F 57% 30.12 in 15.0 mi North 16.1 mph 28.8 mph N/A   Mostly Cloudy
8:00 PM 44 °F - 30 °F 46% 30.11 in 15 mi North 21.9 mph - -   Overcast
8:00 PM 44.6 °F 35.9 °F 30.2 °F 57% 30.11 in 15.0 mi North 23.0 mph 29.9 mph N/A   Overcast
9:00 PM 42.8 °F 34.5 °F 30.2 °F 61% 30.11 in 15.0 mi North 18.4 mph 27.6 mph N/A   Overcast
9:37 PM - - - N/A% - 12.0 mi North 18.4 mph 29.9 mph N/A Rain Light Rain Showers
10:00 PM 42.8 °F 34.5 °F 33.8 °F 70% 30.11 in 15.0 mi North 18.4 mph 31.1 mph N/A Rain Light Rain Showers
11:00 PM 41.0 °F 32.2 °F 33.8 °F 76% 30.10 in 15.0 mi North 18.4 mph 31.1 mph N/A Rain Light Rain Showers